VOI150 MMMX-MMGL

Flight info

Callsign VOI150
Flight time 0h 56m
Altitude 34000
Route OVAG3A/05L OVAGO UT123 IGSON IGSON1B
Aircraft A320/M-SDE3FGHIRWY/LB1

Departure

Time 2026-05-07 04:44
Airport Mexico City Benito Juárez International Airport (MMMX)

Arrival

Time 2026-05-07 05:41
Airport Guadalajara International Airport (MMGL)
Time Latitude Longitude Altitude Speed Heading
2026-05-07 04:02 19.43762 -99.07835 7303 ft 0 kts 60°
2026-05-07 04:35 19.43755 -99.07848 7303 ft 4 kts 64°
2026-05-07 04:35 19.43744 -99.07872 7303 ft 4 kts 52°
2026-05-07 04:35 19.43731 -99.07876 7303 ft 4 kts 333°
2026-05-07 04:36 19.43707 -99.07861 7303 ft 4 kts 328°
2026-05-07 04:36 19.43684 -99.07847 7303 ft 4 kts 329°
2026-05-07 04:36 19.43661 -99.07832 7303 ft 4 kts 329°
2026-05-07 04:36 19.43638 -99.07817 7303 ft 4 kts 323°
2026-05-07 04:37 19.43618 -99.07798 7303 ft 4 kts 306°
2026-05-07 04:37 19.43608 -99.07775 7303 ft 4 kts 258°
2026-05-07 04:37 19.43612 -99.07763 7303 ft 1 kts 239°
2026-05-07 04:37 19.43613 -99.07763 7303 ft 0 kts 239°
2026-05-07 04:39 19.43612 -99.07765 7303 ft 1 kts 239°
2026-05-07 04:39 19.43602 -99.07782 7303 ft 5 kts 239°
2026-05-07 04:40 19.43584 -99.07815 7303 ft 6 kts 239°
2026-05-07 04:40 19.43562 -99.07854 7303 ft 7 kts 239°
2026-05-07 04:40 19.43535 -99.07902 7303 ft 8 kts 239°
2026-05-07 04:40 19.43498 -99.07965 7303 ft 13 kts 239°
2026-05-07 04:41 19.43446 -99.08060 7303 ft 17 kts 240°
2026-05-07 04:41 19.43379 -99.08181 7303 ft 21 kts 240°
2026-05-07 04:41 19.43299 -99.08325 7303 ft 23 kts 240°
2026-05-07 04:41 19.43212 -99.08482 7303 ft 26 kts 240°
2026-05-07 04:42 19.43111 -99.08659 7303 ft 30 kts 239°
2026-05-07 04:42 19.43001 -99.08859 7303 ft 33 kts 238°
2026-05-07 04:42 19.42909 -99.09010 7303 ft 18 kts 231°
2026-05-07 04:42 19.42858 -99.09048 7303 ft 6 kts 208°
2026-05-07 04:43 19.42813 -99.09072 7303 ft 8 kts 200°
2026-05-07 04:43 19.42770 -99.09048 7303 ft 8 kts 100°
2026-05-07 04:43 19.42791 -99.08993 7303 ft 9 kts 59°
2026-05-07 04:43 19.42810 -99.08959 7303 ft 0 kts 59°
2026-05-07 04:44 19.42856 -99.08875 7303 ft 44 kts 59°
2026-05-07 04:44 19.43157 -99.08342 7301 ft 121 kts 59°
2026-05-07 04:44 19.43696 -99.07383 7303 ft 179 kts 59°
2026-05-07 04:44 19.44312 -99.06201 8053 ft 180 kts 59°
2026-05-07 04:45 19.44949 -99.05025 9108 ft 186 kts 56°
2026-05-07 04:45 19.45631 -99.03834 9644 ft 192 kts 56°
2026-05-07 04:45 19.46333 -99.02610 10199 ft 197 kts 57°
2026-05-07 04:45 19.47054 -99.01352 10868 ft 202 kts 58°
2026-05-07 04:46 19.47794 -99.00058 11517 ft 209 kts 58°
2026-05-07 04:46 19.48555 -98.98723 12204 ft 214 kts 58°
2026-05-07 04:46 19.49350 -98.97343 12778 ft 228 kts 59°
2026-05-07 04:46 19.49997 -98.95727 13141 ft 252 kts 79°
2026-05-07 04:47 19.49971 -98.93778 13398 ft 280 kts 107°
2026-05-07 04:47 19.48984 -98.92021 13960 ft 280 kts 140°
2026-05-07 04:47 19.47273 -98.91143 14617 ft 275 kts 173°
2026-05-07 04:47 19.45413 -98.91413 15294 ft 272 kts 206°
2026-05-07 04:48 19.44031 -98.92720 15991 ft 268 kts 238°
2026-05-07 04:48 19.43185 -98.94519 16344 ft 283 kts 244°
2026-05-07 04:48 19.42347 -98.96475 16575 ft 299 kts 244°
2026-05-07 04:48 19.41476 -98.98509 16949 ft 307 kts 244°
2026-05-07 04:49 19.40582 -99.00595 17012 ft 308 kts 244°
2026-05-07 04:49 19.39635 -99.02590 17015 ft 306 kts 237°
2026-05-07 04:49 19.38461 -99.04498 17020 ft 306 kts 234°
2026-05-07 04:49 19.37409 -99.06425 17016 ft 307 kts 244°
2026-05-07 04:50 19.36756 -99.08668 17089 ft 326 kts 258°
2026-05-07 04:50 19.36352 -99.11068 17449 ft 335 kts 258°
2026-05-07 04:50 19.35980 -99.13524 17938 ft 339 kts 259°
2026-05-07 04:50 19.35624 -99.16004 18436 ft 343 kts 259°
2026-05-07 04:51 19.35270 -99.18516 18889 ft 346 kts 259°
2026-05-07 04:51 19.34913 -99.21047 19334 ft 349 kts 259°
2026-05-07 04:51 19.34551 -99.23597 19805 ft 351 kts 259°
2026-05-07 04:51 19.34182 -99.26151 20282 ft 352 kts 259°
2026-05-07 04:52 19.33809 -99.28689 20744 ft 354 kts 259°
2026-05-07 04:52 19.33422 -99.31303 21226 ft 356 kts 259°
2026-05-07 04:52 19.33035 -99.33897 21665 ft 358 kts 259°
2026-05-07 04:52 19.32646 -99.36503 22113 ft 360 kts 259°
2026-05-07 04:53 19.32256 -99.39128 22852 ft 361 kts 259°
2026-05-07 04:53 19.31819 -99.41784 23108 ft 372 kts 258°
2026-05-07 04:53 19.31309 -99.44512 23282 ft 384 kts 257°
2026-05-07 04:53 19.30750 -99.47314 23476 ft 396 kts 256°
2026-05-07 04:54 19.30163 -99.50205 23602 ft 408 kts 256°
2026-05-07 04:54 19.29563 -99.53182 23729 ft 419 kts 256°
2026-05-07 04:54 19.28961 -99.56235 23867 ft 429 kts 257°
2026-05-07 04:54 19.28354 -99.59359 23988 ft 438 kts 257°
2026-05-07 04:55 19.27743 -99.62546 24113 ft 445 kts 257°
2026-05-07 04:55 19.27125 -99.65783 24188 ft 452 kts 257°
2026-05-07 04:55 19.26495 -99.69066 24246 ft 458 kts 257°
2026-05-07 04:55 19.25854 -99.72388 24301 ft 463 kts 257°
2026-05-07 04:56 19.25201 -99.75741 24355 ft 468 kts 257°
2026-05-07 04:56 19.24538 -99.79137 24408 ft 472 kts 257°
2026-05-07 04:56 19.23879 -99.82553 24461 ft 476 kts 257°
2026-05-07 04:56 19.23239 -99.86004 24512 ft 479 kts 257°
2026-05-07 04:57 19.22612 -99.89478 24562 ft 483 kts 257°
2026-05-07 04:57 19.21991 -99.92974 24617 ft 485 kts 258°
2026-05-07 04:57 19.21369 -99.96489 24728 ft 487 kts 257°
2026-05-07 04:57 19.20743 -99.99965 25422 ft 472 kts 257°
2026-05-07 04:58 19.20132 -100.03331 26208 ft 462 kts 257°
2026-05-07 04:58 19.19526 -100.06653 26748 ft 458 kts 257°
2026-05-07 04:58 19.18998 -100.09958 27196 ft 457 kts 262°
2026-05-07 04:58 19.18889 -100.13315 27575 ft 457 kts 271°
2026-05-07 04:59 19.19252 -100.16654 27993 ft 458 kts 279°
2026-05-07 04:59 19.20078 -100.19904 28431 ft 458 kts 287°
2026-05-07 04:59 19.21111 -100.23085 28909 ft 456 kts 287°
2026-05-07 04:59 19.22131 -100.26254 29419 ft 453 kts 287°
2026-05-07 05:00 19.23132 -100.29397 30046 ft 448 kts 287°
2026-05-07 05:00 19.24116 -100.32511 30574 ft 444 kts 287°
2026-05-07 05:00 19.25087 -100.35586 31176 ft 438 kts 287°
2026-05-07 05:00 19.26049 -100.38623 31761 ft 433 kts 287°
2026-05-07 05:01 19.26991 -100.41594 32297 ft 430 kts 286°
2026-05-07 05:01 19.27938 -100.44580 32781 ft 427 kts 286°
2026-05-07 05:01 19.28879 -100.47553 33257 ft 425 kts 286°
2026-05-07 05:01 19.29813 -100.50515 33455 ft 423 kts 286°
2026-05-07 05:02 19.30746 -100.53467 33634 ft 422 kts 286°
2026-05-07 05:02 19.31677 -100.56411 33670 ft 421 kts 286°
2026-05-07 05:02 19.33231 -100.61335 33658 ft 421 kts 286°
2026-05-07 05:03 19.35086 -100.67215 33678 ft 421 kts 286°
2026-05-07 05:03 19.36938 -100.73091 33683 ft 421 kts 286°
2026-05-07 05:04 19.38908 -100.78933 33681 ft 421 kts 288°
2026-05-07 05:04 19.40959 -100.84750 33680 ft 422 kts 288°
2026-05-07 05:05 19.43001 -100.90577 33695 ft 422 kts 288°
2026-05-07 05:05 19.45011 -100.96415 33701 ft 422 kts 287°
2026-05-07 05:06 19.47010 -101.02256 33752 ft 422 kts 287°
2026-05-07 05:06 19.49010 -101.08104 33675 ft 424 kts 287°
2026-05-07 05:07 19.50016 -101.11051 33202 ft 423 kts 287°
2026-05-07 05:07 19.51017 -101.13984 32951 ft 424 kts 287°
2026-05-07 05:07 19.52021 -101.16921 32706 ft 425 kts 287°
2026-05-07 05:07 19.53034 -101.19878 32452 ft 427 kts 287°
2026-05-07 05:08 19.54047 -101.22831 32209 ft 427 kts 287°
2026-05-07 05:08 19.55061 -101.25799 31966 ft 428 kts 287°
2026-05-07 05:08 19.56072 -101.28767 31720 ft 429 kts 287°
2026-05-07 05:08 19.57083 -101.31741 31512 ft 430 kts 287°
2026-05-07 05:09 19.58100 -101.34724 31280 ft 430 kts 287°
2026-05-07 05:09 19.59118 -101.37713 31047 ft 431 kts 287°
2026-05-07 05:09 19.60139 -101.40709 30812 ft 432 kts 287°
2026-05-07 05:09 19.61161 -101.43712 30581 ft 433 kts 287°
2026-05-07 05:10 19.62185 -101.46723 30369 ft 434 kts 287°
2026-05-07 05:10 19.63212 -101.49741 30142 ft 436 kts 287°
2026-05-07 05:10 19.64239 -101.52767 29896 ft 437 kts 287°
2026-05-07 05:10 19.65266 -101.55797 29624 ft 437 kts 287°
2026-05-07 05:11 19.66298 -101.58837 29370 ft 438 kts 287°
2026-05-07 05:11 19.67333 -101.61884 29112 ft 439 kts 287°
2026-05-07 05:11 19.68369 -101.64938 28848 ft 440 kts 287°
2026-05-07 05:11 19.69408 -101.67997 28583 ft 441 kts 287°
2026-05-07 05:12 19.70446 -101.71062 28339 ft 441 kts 287°
2026-05-07 05:12 19.71481 -101.74123 28076 ft 442 kts 287°
2026-05-07 05:12 19.72519 -101.77197 27824 ft 442 kts 287°
2026-05-07 05:12 19.73557 -101.80276 27575 ft 443 kts 287°
2026-05-07 05:13 19.74593 -101.83358 27336 ft 444 kts 287°
2026-05-07 05:13 19.75631 -101.86443 27090 ft 444 kts 287°
2026-05-07 05:13 19.76668 -101.89530 26854 ft 445 kts 287°
2026-05-07 05:13 19.77711 -101.92631 26615 ft 445 kts 287°
2026-05-07 05:14 19.78754 -101.95725 26383 ft 446 kts 287°
2026-05-07 05:14 19.79801 -101.98828 26116 ft 443 kts 287°
2026-05-07 05:14 19.80827 -102.01868 25883 ft 431 kts 287°
2026-05-07 05:14 19.81824 -102.04818 25654 ft 420 kts 286°
2026-05-07 05:15 19.82800 -102.07707 25423 ft 412 kts 286°
2026-05-07 05:15 19.83760 -102.10564 25198 ft 410 kts 286°
2026-05-07 05:15 19.84712 -102.13410 24970 ft 410 kts 286°
2026-05-07 05:15 19.85664 -102.16268 24746 ft 410 kts 286°
2026-05-07 05:16 19.86617 -102.19131 24528 ft 411 kts 286°
2026-05-07 05:16 19.87571 -102.21991 24308 ft 412 kts 286°
2026-05-07 05:16 19.88531 -102.24860 24089 ft 411 kts 286°
2026-05-07 05:16 19.89488 -102.27719 23869 ft 411 kts 286°
2026-05-07 05:17 19.90445 -102.30576 23655 ft 410 kts 286°
2026-05-07 05:17 19.91398 -102.33430 23392 ft 409 kts 286°
2026-05-07 05:17 19.92347 -102.36277 23030 ft 410 kts 286°
2026-05-07 05:17 19.93306 -102.39163 22173 ft 418 kts 287°
2026-05-07 05:18 19.94265 -102.42036 21993 ft 407 kts 286°
2026-05-07 05:18 19.95210 -102.44859 21599 ft 403 kts 286°
2026-05-07 05:18 19.96143 -102.47656 21137 ft 400 kts 287°
2026-05-07 05:18 19.97069 -102.50437 20658 ft 398 kts 287°
2026-05-07 05:19 19.97987 -102.53200 20182 ft 396 kts 287°
2026-05-07 05:19 19.98903 -102.55961 19704 ft 395 kts 287°
2026-05-07 05:19 20.00018 -102.58625 19294 ft 394 kts 299°
2026-05-07 05:19 20.01644 -102.60930 19119 ft 385 kts 313°
2026-05-07 05:20 20.03644 -102.62755 18999 ft 375 kts 325°
2026-05-07 05:20 20.05884 -102.64093 18890 ft 364 kts 333°
2026-05-07 05:20 20.08118 -102.65301 18623 ft 360 kts 333°
2026-05-07 05:20 20.10345 -102.66506 18314 ft 357 kts 333°
2026-05-07 05:21 20.12554 -102.67697 17978 ft 355 kts 334°
2026-05-07 05:21 20.17268 -102.68677 17299 ft 343 kts 10°
2026-05-07 05:21 20.19523 -102.68054 17152 ft 328 kts 26°
2026-05-07 05:22 20.21592 -102.67119 17038 ft 319 kts 26°
2026-05-07 05:22 20.23610 -102.66212 16918 ft 310 kts 26°
2026-05-07 05:22 20.25568 -102.65330 16786 ft 302 kts 26°
2026-05-07 05:22 20.27476 -102.64467 16662 ft 294 kts 26°
2026-05-07 05:23 20.29327 -102.63628 16535 ft 286 kts 26°
2026-05-07 05:23 20.31133 -102.62808 16410 ft 279 kts 26°
2026-05-07 05:23 20.32921 -102.62027 16289 ft 278 kts 21°
2026-05-07 05:23 20.34809 -102.61587 16157 ft 279 kts
2026-05-07 05:24 20.36752 -102.61604 16044 ft 280 kts 354°
2026-05-07 05:24 20.38679 -102.61894 15919 ft 280 kts 346°
2026-05-07 05:24 20.40444 -102.62736 15805 ft 278 kts 321°
2026-05-07 05:24 20.41731 -102.64241 15681 ft 275 kts 296°
2026-05-07 05:25 20.42337 -102.66136 15569 ft 269 kts 272°
2026-05-07 05:25 20.42286 -102.68107 15452 ft 266 kts 262°
2026-05-07 05:25 20.42135 -102.70072 15333 ft 266 kts 262°
2026-05-07 05:25 20.41991 -102.72045 15216 ft 266 kts 262°
2026-05-07 05:26 20.41850 -102.74008 15102 ft 266 kts 262°
2026-05-07 05:26 20.41708 -102.75968 14987 ft 265 kts 262°
2026-05-07 05:26 20.41567 -102.77923 14872 ft 264 kts 262°
2026-05-07 05:26 20.41426 -102.79867 14756 ft 263 kts 262°
2026-05-07 05:27 20.41284 -102.81806 14643 ft 262 kts 262°
2026-05-07 05:27 20.41141 -102.83741 14431 ft 261 kts 263°
2026-05-07 05:27 20.41000 -102.85665 14170 ft 260 kts 262°
2026-05-07 05:27 20.40858 -102.87582 13907 ft 259 kts 262°
2026-05-07 05:28 20.40715 -102.89502 13589 ft 260 kts 262°
2026-05-07 05:28 20.40576 -102.91416 13298 ft 258 kts 263°
2026-05-07 05:28 20.40437 -102.93319 13033 ft 256 kts 263°
2026-05-07 05:28 20.40294 -102.95223 12610 ft 261 kts 262°
2026-05-07 05:29 20.40147 -102.97153 12241 ft 262 kts 264°
2026-05-07 05:29 20.39869 -102.99070 11891 ft 261 kts 248°
2026-05-07 05:29 20.38868 -103.00632 11625 ft 255 kts 218°
2026-05-07 05:29 20.37308 -103.01429 11425 ft 248 kts 189°
2026-05-07 05:30 20.35625 -103.01279 11221 ft 244 kts 161°
2026-05-07 05:30 20.34066 -103.00580 10974 ft 243 kts 156°
2026-05-07 05:30 20.32535 -102.99793 10641 ft 246 kts 155°
2026-05-07 05:30 20.30989 -102.98989 10292 ft 249 kts 155°
2026-05-07 05:31 20.29539 -102.97969 9948 ft 254 kts 132°
2026-05-07 05:31 20.28699 -102.96325 9584 ft 257 kts 102°
2026-05-07 05:31 20.28729 -102.94435 9179 ft 259 kts 70°
2026-05-07 05:31 20.29625 -102.92807 8804 ft 255 kts 41°
2026-05-07 05:32 20.30971 -102.91673 8727 ft 241 kts 24°
2026-05-07 05:32 20.32546 -102.91155 8744 ft 236 kts
2026-05-07 05:32 20.34136 -102.91353 8741 ft 229 kts 336°
2026-05-07 05:32 20.35484 -102.92210 8741 ft 226 kts 314°
2026-05-07 05:33 20.36397 -102.93561 8744 ft 226 kts 294°
2026-05-07 05:33 20.37023 -102.95090 8745 ft 224 kts 292°
2026-05-07 05:33 20.37643 -102.96616 8745 ft 225 kts 293°
2026-05-07 05:33 20.38277 -102.98129 8747 ft 222 kts 293°
2026-05-07 05:34 20.38912 -102.99630 8746 ft 223 kts 293°
2026-05-07 05:34 20.39552 -103.01144 8746 ft 225 kts 293°
2026-05-07 05:34 20.40188 -103.02647 8737 ft 218 kts 293°
2026-05-07 05:34 20.40803 -103.04103 8741 ft 212 kts 293°
2026-05-07 05:35 20.41391 -103.05493 8778 ft 198 kts 293°
2026-05-07 05:35 20.41936 -103.06785 8717 ft 187 kts 293°
2026-05-07 05:35 20.42467 -103.08042 8556 ft 185 kts 293°
2026-05-07 05:35 20.42994 -103.09292 8364 ft 184 kts 293°
2026-05-07 05:36 20.43516 -103.10529 8150 ft 183 kts 293°
2026-05-07 05:36 20.44040 -103.11770 7933 ft 184 kts 293°
2026-05-07 05:36 20.44563 -103.13010 7918 ft 183 kts 293°
2026-05-07 05:36 20.45080 -103.14237 7707 ft 179 kts 294°
2026-05-07 05:37 20.45579 -103.15421 7526 ft 171 kts 294°
2026-05-07 05:37 20.46042 -103.16518 7345 ft 155 kts 294°
2026-05-07 05:37 20.46473 -103.17543 7190 ft 149 kts 293°
2026-05-07 05:37 20.46894 -103.18540 7033 ft 146 kts 293°
2026-05-07 05:38 20.47306 -103.19519 6886 ft 144 kts 293°
2026-05-07 05:38 20.47716 -103.20493 6735 ft 143 kts 294°
2026-05-07 05:38 20.48122 -103.21457 6584 ft 143 kts 294°
2026-05-07 05:38 20.48528 -103.22421 6421 ft 143 kts 294°
2026-05-07 05:39 20.48935 -103.23389 6271 ft 144 kts 293°
2026-05-07 05:39 20.49346 -103.24365 6133 ft 145 kts 293°
2026-05-07 05:39 20.49624 -103.25025 6025 ft 143 kts 292°
2026-05-07 05:39 20.50031 -103.25992 5819 ft 144 kts 293°
2026-05-07 05:40 20.50446 -103.26978 5616 ft 148 kts 292°
2026-05-07 05:40 20.50871 -103.27990 5369 ft 151 kts 291°
2026-05-07 05:40 20.51302 -103.29015 5142 ft 151 kts 290°
2026-05-07 05:40 20.51726 -103.30012 5029 ft 138 kts 288°
2026-05-07 05:41 20.52055 -103.30816 5030 ft 99 kts 292°
2026-05-07 05:41 20.52174 -103.31073 5032 ft 5 kts 327°
2026-05-07 05:41 20.52211 -103.31085 5032 ft 6 kts
2026-05-07 05:41 20.52242 -103.31075 5031 ft 4 kts 24°
2026-05-07 05:42 20.52279 -103.31053 5031 ft 8 kts 31°
2026-05-07 05:42 20.52332 -103.31018 5031 ft 10 kts 30°
2026-05-07 05:42 20.52406 -103.30963 5028 ft 14 kts 48°
2026-05-07 05:42 20.52456 -103.30857 5027 ft 18 kts 69°
2026-05-07 05:43 20.52461 -103.30727 5026 ft 19 kts 113°
2026-05-07 05:43 20.52405 -103.30594 5029 ft 20 kts 113°
2026-05-07 05:43 20.52364 -103.30468 5029 ft 12 kts 87°
2026-05-07 05:43 20.52427 -103.30412 5029 ft 13 kts 21°
2026-05-07 05:44 20.52503 -103.30392 5029 ft 7 kts 14°
2026-05-07 05:44 20.52523 -103.30385 5029 ft 2 kts 19°
2026-05-07 05:44 20.52525 -103.30385 5029 ft 0 kts 19°